Terug naar catalogus

PEGASUS DEB

ActiefPO
NORAD 39321·DEBRIS·🇺🇸 United States

Gelanceerd May 19, 1994 vanaf Vandenberg Space Force Base

Loading…

Volgende Passages (komende 24 uur)

TLE

VersSource: Space-Track

Epoch: Sep 14, 2026, 05:19 UTC

1 39321U 94029AFG 26257.22191703  .00000545  00000-0  18359-3 0  9992
2 39321  82.2844  77.7084 0431681 275.9672  79.2468 13.94348026666657

Volg PEGASUS DEB in realtime met AllMySat

Download on the App Store